Timeline UpdatesTrip UpdatesNews PostsPvt Posts♥♥Travel TipsAdmin PostsConv PostsFollowed PostsChat RequestsBlog PostsPNR Posts

Disclaimer
Search
 
 
Sun Oct 26, 2014 10:37:27 ISTHomeTrainsΣChainsAtlasPNRForumGalleryNewsFAQTripsMembersLoginFeedback
No Recent News for this Train
Other Trains in the News **new
Latest...
.
Sat Jul 30, 2011 (04:46AM)
⇐ Return Journey: Train# 57562

57561/Kacheguda - Manmad Passenger (UnReserved)

Time-Table HAS CHANGED.
Sep 03 2014 (11:09AM)
Change Departure Station:
Change Arrival Station:
Post a Train Travel TipPost a Train Travel Tip **new
Post a Comment/Question/Picture/VideoPost a Comment/Question/Picture/Video
Pantry/Catering
✕ NO Pantry Car
✓ Catering Avbl
RSA - Rake Sharing
57542-57562-57561-57590-57541-57558-57557
Rake/Coach Composition
LOCO-SLR-GEN-GEN-GEN-GEN-GEN-GEN-GEN-GEN-GEN-GEN-SLR.
Loco
MLY WDM 2/3A or WDG 3A.
News    PNR    Forum    Time-Table    Availability    Fare Chart    Map    Arr/Dep History    Trips    Gallery    ΣChains    X/O    Timeline    
Travel Time: 7h 5m    16 halts    Distance: 194 km    Avg Speed: 27 km/hr
Type: Passenger
Zone: SCR/South Central
Departs @ 16:00 (Avg 1h 30m late)
Platform# ???
SMTWTFS
Kodi/KODI 
Arrives @ 23:05 (Avg 1h 12m late)
Platform# 6
SMTWTFS
Manmad Junction/MMR 

16 halts. 17 intermediate Stations between Kodi and Manmad Junction

Show ALL intermediate Stations  Show Old Time-Table

#TrkCodeStation NameX/OArrivesAvgDepartsAvgHaltPFDay#KmSpeedElevZoneAddress
1|--|KCGHyderabad Kacheguda (5)  -04:50+211-430.258494mSCRHyderabad - 500027, Telangana
2/==/VARVidya Nagar (2)  04:52-04:53-1m--1-428.344505mSCRHyderabad, Telangana
3/==/JOOJamai Osmania (2)  04:55-04:56-1m--1-426.836515mSCRHyderabad, Telangana
4/==/ATCArts College (2)X  04:57-04:58-1m--1-426.233521mSCRHyderabad, Telangana
5/=-/STPDSitafalmandi (4)  05:00+805:01+81m21-425.180533mSCRSecunderabad, Telangana
6/--/LGDHLalaguda Gate (2)  05:03-05:04-1m--1-422.44543mSCRSecunderabad, Telangana
7/--/MJFMalkajgiri (3)X  05:18+1305:19+131m31-421.527535mSCRSecunderabad, Telangana
8|==|DYEDayanand Nagar (2)  05:21-05:22-1m--1-420.636537mSCRSecunderabad, Telangana
9|==|SFXSafilguda (2)  05:23-05:24-1m--1-420.034544mSCRSecunderabad, Telangana
10|==|RKORamakistapuram Gate (2)  05:27-05:28-1m--1-418.333561mSCRSecunderabad, Telangana
11|==|AMQAmmuguda Halt (2)  05:30-05:31-1m--1-417.283569mSCRSecunderabad, Telangana
12|==|CVBCavalry Barracks (3)  05:32+1505:33+151m31-415.824575mSCRSecunderabad, Telangana
13|==|ALWAlwal (2)  05:36-05:37-1m--1-414.648580mSCRSecunderabad, Telangana
14|==|BOZBolarum Bazar (2)  05:39-05:40-1m--1-412.913584mSCRSecunderabad, Telangana
15|=-|BMOBolarum (3)X  05:48+1305:49+131m11-411.327597mSCRSecunderabad, Telangana
16|--|GDPLGundla Pochampally (1)X  06:00 06:01+906:01 06:02+131m--1-405.9103601mSCRRangareddy Dist., Telangana
17|--|GWVGowdavalli (1)X  06:05-06:06-1m11-400.823601mSCRRangareddy Dist., Telangana
18|--|MEDMedchal (3)  06:15+1306:16+151m21-397.479602mSCRRangareddy Dist., Telangana
19|--|DBVDabilpur (1)  06:19-06:20-1m11-393.480611mSCRRangareddy Dist., Telangana
20|--|KUCHKuchavaram Halt (1)X  06:25-06:26-1m11-386.820595mSCRRangareddy, Telangana
21|--|MOBManoharabad (2)  06:34+1406:35+191m--1-384.1-593mSCRMedak Dist., Telangana
22|--|PAPMPalata Potaram (1)  06:39-06:40-1m11-371.626522mSCRMedak Dist., Telangana
23|--|BMPLBrahmanapalli (1)  06:44-06:45-1m11-369.921528mSCRMedak Dist., Telangana
24|--|MEMasaipet (2)X  06:53+1806:54+221m--1-367.046520mSCRMedak Dist., Telangana
25|--|SHANSrinivasa NagarX  06:58-06:59-1m--1-363.932522mSCRMedak Dist., Telangana
26|--|WDRWadiaram (2)  07:08+2107:09+231m--1-359.266547mSCRMedak Dist., Telangana
27|--|MZLMirzapalli (1)  07:15+2507:16+281m11-352.629530mSCRMedak Dist., Telangana
28|--|AKEAkanapet (1)X  07:38+1707:39+181m11-341.837566mSCRMedak District., Telangana
29|--|BKUBhiknur  07:49+1907:50+201m--1-335.861575mSCRNizamabad Dist., Telangana
30|--|THPRTippapur (1)  07:54-07:55-1m11-331.755549mSCRNizamabad Dist., Telangana
31|--|TMDTalmadla  08:01+2308:02+231m--1-326.123559mSCRNizamabad Dist., Telangana
32|--|KMCKamareddi (3)  08:28+1108:30+122m11-316.175528mSCRNizamabad Dist., Telangana
33|--|UPWUppalavai  08:39+1508:40+151m--1-304.957529mSCRNizamabad Dist., Telangana
34|--|SCPSirnapalli  08:51+1508:52+161m--1-294.553456mSCRNizamabad Dist., Telangana
35|--|IDLIndalvai (1)X  09:01+1709:02+191m11-286.647439mSCRNizamabad Dist., Telangana
36|--|DHPDichpalliX  09:14+1909:15+211m--1-277.139424mSCRNizamabad Dist., Telangana
37|--|NZBNizamabad (3)  09:35+1309:40+145m31-264.347384mSCRNizamabad, Telangana
38|--|JKMJankampet Junction (1)  09:48+1909:49+191m11-258.063391mSCRJankampet Junction nizamabad dist., Telangana
39|--|NVTNavipet (2)  09:58+2009:59+211m--1-248.670374mSCRNizamabad Dist., Telangana
40|--|FKBFakrabad (1)  10:05-10:06-1m11-241.618348mSCRNizamabad Dist., Telangana
41|--|BSXBasar (2)X  10:28+810:30+102m21-234.959358mSCRDist Adilabad, Telangana
42|--|DABDharmabad (2)  10:40+1210:41+171m--1-225.078354mSCRDegaon, Maharashtra
43|--|SQESamarala Halt  10:46-10:47-1m--1-218.654360mSCRDharmabad, Maharashtra
44|--|KEKKarkheli  10:55+1910:56+191m--1-211.355358mSCRBiloli, Maharashtra
45|--|BLSABolsa  11:04+1911:05+191m--1-204.056361mSCRDharmabad, Maharashtra
46|--|UMRIUmri (1)  11:14+1911:15+191m11-195.694381mSCRHuzur Sahib Nanded, Maharashtra
47|--|SLGHShelgaon Halt  11:20-11:21-1m--1-187.833378mSCRMudkhed, Maharashtra
48|--|SVNSivungaon  11:29+2011:30+201m--1-183.317395mSCRHuzur Sahib Nanded, Maharashtra
49|--|MUEMudkhed Junction (4)  11:55+2811:57+282m--1-176.161378mSCRMudkhed, Maharashtra
50|--|MGCMugat  12:06+3212:07+331m--1-166.940360mSCRHuzur Sahib Nanded, Maharashtra
51|--|PARDPathradX  12:12-12:13-1m--1-163.639363mSCRHuzur Sahib Nanded, Maharashtra
52|--|MTDIMaltekdi  12:23 12:24+3112:24 12:25+321m--1-156.533362mSCRNanded, Maharashtra
53|--|NEDHazur Sahib Nanded (4)X  12:30+2412:35+285m--1-153.843366mSCRNanded, Maharashtra
54|--|WNGWanegaon  12:44-12:45-1m--1-147.331371mSCRChudawa, Maharashtra
55|--|LBGLimbgaon (2)X  12:54+4012:55+401m--1-142.664390mSCRHuzur Sahib Nanded, Maharashtra
56|--|CRUChudawa (1)X  13:04+4313:05+481m11-133.040392mSCRHingoli, Maharashtra
57|--|PAUPurna Junction (4)X  13:20+4513:25+545m--1-123.152384mSCRPurna, Maharashtra
58|--|MQLMirkhal  13:39+1:0013:40+1:001m--1-111.036405mSCRPurna, Maharashtra
59|--|PIZPingli (1)  13:49+1:0013:50+1:031m11-105.751399mSCRParbhani, Maharashtra
60|--|PBNParbhani Junction (3)X  14:03+4314:05+462m11-94.773414mSCRParbhani 431401, Maharashtra
61|--|PGPergaon  14:15+1:1114:16+1:121m--1-82.673441mSCRParbhani, Maharashtra
62|--|DAVDevalgaon Avchar  14:21+1:1514:22+1:181m--1-76.579425mSCRParbhani, Maharashtra
63|--|MVOManwath Road (2)  14:29+1:1714:30+1:191m--1-67.354421mSCRParbhani, Maharashtra
64|--|DGPPDhengli PimpalgaonX  14:36+1:2514:37+1:281m--1-61.926407mSCRSatuna, Maharashtra
65|--|SELUSelu (2)  14:59+1:0815:00+1:101m--1-52.368436mSCRParbhani, Maharashtra
66|--|SCOSatunaX  15:09+1:1915:10+1:211m--1-42.153440mSCRSatona, Maharashtra
67|--|UPRUsmanpur  15:19+1:2115:20+1:231m--1-34.263444mSCRUsmanpur, Maharashtra
68|--|PTUPartur (2)  15:29+1:2315:30+1:261m--1-24.748465mSCRJalna, Maharashtra
69|--|PDGParadgaon  15:39-15:40-1m--1-17.542454mSCRUsmanpur, Maharashtra
70|--|RNERanjani  15:49+1:2315:50+1:251m--1-11.275469mSCRJalna, Maharashtra
71|--|KODIKodi»X  15:59+1:2916:00+1:301m--10.066473mSCRRanjani, Maharashtra
72|--|SVDSarwariX  16:09+1:3216:10+1:331m--110.08493mSCRRanjani, Maharashtra
73|--|JJalna (3)  17:23+3517:25+382m--119.781502mSCRJalna, Maharashtra
74|--|BDUBadnapur  17:39+3817:40+471m--138.771523mSCRJalna, Maharashtra
75|--|KMVKarmad  17:53+5417:54+591m--154.124567mSCRAurangabad, Maharashtra
76|--|CTHChikalthan  18:04+1:0518:05+1:051m--158.1-582mSCRAurangabad, Maharashtra
77|--|MKDDMukundwadi Halt (1)X  18:09-18:10-1m1172.411580mSCRAurangabad, Maharashtra
78|--|AWBAurangabad (5)X  19:05+2819:10+305m--182.383561mSCRAurangabad 431001, Maharashtra
79|--|DLBDaulatabad (1)  19:19+3519:20+361m1194.862575mSCRDaulatabad, Maharashtra
80|--|POZPotul (1)  19:38 19:29+3519:39 19:30+361m11104.151554mSCRLasur, Maharashtra
81|--|LSRLasur (2)X  19:44+3519:45+371m--1115.9101536mSCRAurangabad, Maharashtra
82|--|KAJGKaranjgaonX  19:51+4219:52+461m--1126.031523mSCRLasur, Maharashtra
83|--|PSDParsoda  20:01+4520:02+471m--1130.762530mSCRRotegaon, Maharashtra
84|--|RGORotegaonX  20:14+4620:15+501m--1143.0145547mSCRAurangabad, Maharashtra
85|--|TRTarur  20:24+5420:25+561m--1164.811586mSCRTaru, Maharashtra
86|--|NSLNagarsol (2)X  20:59+3721:00+421m--1171.011589mSCRDist. Nashik, Maharashtra
87|--/ANKAnkai (3)X  21:54+1621:55+1:281m31181.011620mSCRDist. Nashik, Maharashtra
88/--/MMRManmad Junction (6)•  23:05+1:12-61193.9-580mCRManmad 423104, Maharashtra
Scroll to Top
Scroll to Bottom